04-09-2023, 00:00:00,    220,    0.0,   13.9,   0.00,   0.00, 1022.2,    0.2, -999.0
04-09-2023, 00:00:10,    220,    0.0,   13.8,   0.00,   0.00, 1022.1,    0.2, -999.0
04-09-2023, 00:00:19,    220,    0.0,   13.8,   0.00,   0.00, 1022.1,    0.2, -999.0
04-09-2023, 00:00:29,    220,    0.0,   13.8,   0.00,   0.00, 1022.2,    0.1, -999.0
04-09-2023, 00:00:40,    220,    0.0,   13.8,   0.00,   0.00, 1022.1,    0.2, -999.0
04-09-2023, 00:00:49,    220,    0.0,   13.8,   0.00,   0.00, 1022.2,    0.3, -999.0
04-09-2023, 00:00:59,    220,    0.0,   13.9,   0.00,   0.00, 1022.1,    0.2, -999.0
04-09-2023, 00:01:09,    220,    0.0,   13.8,   0.00,   0.00, 1022.1,    0.3, -999.0
04-09-2023, 00:01:19,    222,    0.0,   13.9,   0.00,   0.00, 1022.2,    0.2, -999.0
04-09-2023, 00:01:29,    220,    0.0,   13.9,   0.00,   0.00, 1022.2,    0.2, -999.0
04-09-2023, 00:01:39,    220,    0.0,   13.8,   0.00,   0.00, 1022.1,    0.4, -999.0
04-09-2023, 00:01:49,    220,    0.0,   13.8,   0.00,   0.00, 1022.2,    0.2, -999.0
04-09-2023, 00:01:59,    220,    0.0,   13.7,   0.00,   0.00, 1022.1,    0.3, -999.0
04-09-2023, 00:02:09,    220,    0.0,   13.8,   0.00,   0.00, 1022.1,    0.4, -999.0
04-09-2023, 00:02:19,    220,    0.0,   13.8,   0.00,   0.00, 1022.1,    0.4, -999.0
04-09-2023, 00:02:29,    220,    0.0,   13.8,   0.00,   0.00, 1022.1,    0.2, -999.0
04-09-2023, 00:02:39,    220,    0.0,   13.8,   0.00,   0.00, 1022.1,    0.3, -999.0
04-09-2023, 00:02:49,    220,    0.0,   13.7,   0.00,   0.00, 1022.1,    0.2, -999.0
04-09-2023, 00:02:59,    220,    0.0,   13.8,   0.00,   0.00, 1022.1,    0.4, -999.0
04-09-2023, 00:03:09,    220,    0.0,   13.7,   0.00,   0.00, 1022.1,    0.3, -999.0
04-09-2023, 00:03:19,    220,    0.0,   13.7,   0.00,   0.00, 1022.1,    0.3, -999.0
04-09-2023, 00:03:29,    220,    0.0,   13.7,   0.00,   0.00, 1022.1,    0.2, -999.0
04-09-2023, 00:03:39,    220,    0.0,   13.7,   0.00,   0.00, 1022.1,    0.4, -999.0
04-09-2023, 00:03:49,    220,    0.0,   13.7,   0.00,   0.00, 1022.1,    0.4, -999.0
04-09-2023, 00:03:59,    220,    0.0,   13.6,   0.00,   0.00, 1022.1,    0.3, -999.0
04-09-2023, 00:04:09,    220,    0.0,   13.7,   0.00,   0.00, 1022.1,    0.2, -999.0
04-09-2023, 00:04:19,    220,    0.0,   13.7,   0.00,   0.00, 1022.1,    0.2, -999.0
04-09-2023, 00:04:29,    220,    0.0,   13.7,   0.00,   0.00, 1022.1,    0.0, -999.0
04-09-2023, 00:04:39,    220,    0.0,   13.7,   0.00,   0.00, 1022.1,    0.0, -999.0
04-09-2023, 00:04:49,    220,    0.0,   13.7,   0.00,   0.00, 1022.1,    0.2, -999.0
04-09-2023, 00:04:58,    220,    0.0,   13.6,   0.00,   0.00, 1022.1,    0.7, -999.0
04-09-2023, 00:05:09,    220,    0.0,   13.6,   0.00,   0.00, 1022.1,    0.3, -999.0
04-09-2023, 00:05:19,    220,    0.0,   13.6,   0.00,   0.00, 1022.1,    0.0, -999.0
04-09-2023, 00:05:28,    220,    0.0,   13.6,   0.00,   0.00, 1022.1,    0.0, -999.0
04-09-2023, 00:05:38,    220,    0.0,   13.5,   0.00,   0.00, 1022.1,    0.0, -999.0
04-09-2023, 00:05:49,    220,    0.0,   13.5,   0.00,   0.00, 1022.1,    0.0, -999.0
04-09-2023, 00:05:59,    221,    0.0,   13.5,   0.00,   0.00, 1022.1,    0.0, -999.0
04-09-2023, 00:06:08,    220,    0.0,   13.5,   0.00,   0.00, 1022.1,    0.0, -999.0
04-09-2023, 00:06:18,    220,    0.0,   13.5,   0.00,   0.00, 1022.1,    0.5, -999.0
04-09-2023, 00:06:29,    220,    0.0,   13.5,   0.00,   0.00, 1022.1,    0.3, -999.0
04-09-2023, 00:06:38,    220,    0.0,   13.5,   0.00,   0.00, 1022.1,    0.2, -999.0
04-09-2023, 00:06:48,    220,    0.0,   13.5,   0.00,   0.00, 1022.1,    0.3, -999.0
04-09-2023, 00:06:58,    220,    0.0,   13.5,   0.00,   0.00, 1022.1,    0.2, -999.0
04-09-2023, 00:07:08,    220,    0.0,   13.4,   0.00,   0.00, 1022.1,    0.2, -999.0
04-09-2023, 00:07:18,    220,    0.0,   13.5,   0.00,   0.00, 1022.1,    0.2, -999.0
04-09-2023, 00:07:28,    220,    0.0,   13.5,   0.00,   0.00, 1022.1,    0.3, -999.0
04-09-2023, 00:07:38,    220,    0.0,   13.4,   0.00,   0.00, 1022.1,    0.0, -999.0
04-09-2023, 00:07:48,    220,    0.0,   13.5,   0.00,   0.00, 1022.1,    0.3, -999.0
04-09-2023, 00:07:58,    220,    0.0,   13.4,   0.00,   0.00, 1022.1,    0.1, -999.0
04-09-2023, 00:08:08,    220,    0.0,   13.5,   0.00,   0.00, 1022.1,    0.2, -999.0
04-09-2023, 00:08:18,    220,    0.0,   13.4,   0.00,   0.00, 1022.1,    0.6, -999.0
04-09-2023, 00:08:28,    220,    0.0,   13.4,   0.00,   0.00, 1022.1,    0.2, -999.0
04-09-2023, 00:08:38,    220,    0.0,   13.3,   0.00,   0.00, 1022.1,    0.0, -999.0
04-09-2023, 00:08:48,    220,    0.0,   13.4,   0.00,   0.00, 1022.1,    0.0, -999.0
04-09-2023, 00:08:58,    220,    0.0,   13.4,   0.00,   0.00, 1022.1,    0.5, -999.0
04-09-2023, 00:09:08,    220,    0.0,   13.4,   0.00,   0.00, 1022.1,    0.0, -999.0
04-09-2023, 00:09:18,    220,    0.0,   13.4,   0.00,   0.00, 1022.1,    0.4, -999.0
04-09-2023, 00:09:28,    220,    0.0,   13.4,   0.00,   0.00, 1022.1,    0.1, -999.0
04-09-2023, 00:09:38,    220,    0.0,   13.4,   0.00,   0.00, 1022.0,    0.3, -999.0
04-09-2023, 00:09:48,    221,    0.0,   13.4,   0.00,   0.00, 1022.1,    0.1, -999.0
04-09-2023, 00:09:58,    223,    0.0,   13.4,   0.00,   0.00, 1022.0,    0.3, -999.0
04-09-2023, 00:10:08,    224,    0.0,   13.3,   0.00,   0.00, 1022.0,    0.2, -999.0
04-09-2023, 00:10:18,    224,    0.0,   13.4,   0.00,   0.00, 1022.1,    0.3, -999.0
04-09-2023, 00:10:28,    224,    0.0,   13.4,   0.00,   0.00, 1022.0,    0.3, -999.0
04-09-2023, 00:10:38,    223,    0.0,   13.3,   0.00,   0.00, 1022.1,    0.3, -999.0
04-09-2023, 00:10:48,    224,    0.0,   13.4,   0.00,   0.00, 1022.1,    0.5, -999.0
04-09-2023, 00:10:58,    224,    0.0,   13.4,   0.00,   0.00, 1022.1,    0.3, -999.0
04-09-2023, 00:11:08,    224,    0.0,   13.3,   0.00,   0.00, 1022.1,    0.1, -999.0
04-09-2023, 00:11:18,    223,    0.0,   13.3,   0.00,   0.00, 1022.1,    0.4, -999.0
04-09-2023, 00:11:27,    223,    0.0,   13.3,   0.00,   0.00, 1022.1,    0.1, -999.0
04-09-2023, 00:11:38,    223,    0.0,   13.3,   0.00,   0.00, 1022.1,    0.0, -999.0
04-09-2023, 00:11:48,    223,    0.0,   13.4,   0.00,   0.00, 1022.1,    0.0, -999.0
04-09-2023, 00:11:57,    224,    0.0,   13.4,   0.00,   0.00, 1022.1,    0.3, -999.0
04-09-2023, 00:12:07,    223,    0.0,   13.3,   0.00,   0.00, 1022.1,    0.3, -999.0
04-09-2023, 00:12:18,    223,    0.0,   13.3,   0.00,   0.00, 1022.1,    0.3, -999.0
04-09-2023, 00:12:27,    223,    0.0,   13.3,   0.00,   0.00, 1022.1,    0.5, -999.0
04-09-2023, 00:12:37,    223,    0.0,   13.3,   0.00,   0.00, 1022.0,    0.2, -999.0
04-09-2023, 00:12:48,    223,    0.0,   13.3,   0.00,   0.00, 1022.0,    0.4, -999.0
04-09-2023, 00:12:57,    223,    0.0,   13.3,   0.00,   0.00, 1022.1,    0.3, -999.0
04-09-2023, 00:13:07,    224,    0.0,   13.2,   0.00,   0.00, 1022.1,    0.3, -999.0
04-09-2023, 00:13:17,    224,    0.0,   13.3,   0.00,   0.00, 1022.1,    0.2, -999.0
04-09-2023, 00:13:28,    224,    0.0,   13.2,   0.00,   0.00, 1022.1,    0.3, -999.0
04-09-2023, 00:13:37,    223,    0.0,   13.2,   0.00,   0.00, 1022.0,    0.3, -999.0
04-09-2023, 00:13:47,    224,    0.0,   13.3,   0.00,   0.00, 1022.0,    0.3, -999.0
04-09-2023, 00:13:57,    223,    0.0,   13.3,   0.00,   0.00, 1022.1,    0.1, -999.0
04-09-2023, 00:14:07,    224,    0.0,   13.3,   0.00,   0.00, 1022.1,    0.3, -999.0
04-09-2023, 00:14:17,    223,    0.0,   13.3,   0.00,   0.00, 1022.0,    0.3, -999.0
04-09-2023, 00:14:27,    224,    0.0,   13.3,   0.00,   0.00, 1022.0,    0.3, -999.0
04-09-2023, 00:14:37,    224,    0.0,   13.3,   0.00,   0.00, 1022.1,    0.4, -999.0
04-09-2023, 00:14:47,    223,    0.0,   13.3,   0.00,   0.00, 1022.0,    0.3, -999.0
04-09-2023, 00:14:57,    223,    0.0,   13.3,   0.00,   0.00, 1022.0,    0.4, -999.0
04-09-2023, 00:15:07,    223,    0.0,   13.3,   0.00,   0.00, 1022.0,    0.1, -999.0
04-09-2023, 00:15:17,    223,    0.0,   13.3,   0.00,   0.00, 1022.1,    0.2, -999.0
04-09-2023, 00:15:27,    224,    0.0,   13.3,   0.00,   0.00, 1022.1,    0.2, -999.0
04-09-2023, 00:15:37,    223,    0.0,   13.3,   0.00,   0.00, 1022.1,    0.3, -999.0
04-09-2023, 00:15:47,    223,    0.0,   13.2,   0.00,   0.00, 1022.0,    0.2, -999.0
04-09-2023, 00:15:57,    223,    0.0,   13.2,   0.00,   0.00, 1022.0,    0.3, -999.0
04-09-2023, 00:16:07,    223,    0.0,   13.2,   0.00,   0.00, 1022.0,    0.3, -999.0
04-09-2023, 00:16:17,    224,    0.0,   13.2,   0.00,   0.00, 1022.0,    0.3, -999.0
04-09-2023, 00:16:27,    223,    0.0,   13.2,   0.00,   0.00, 1022.0,    0.4, -999.0
04-09-2023, 00:16:37,    223,    0.0,   13.2,   0.00,   0.00, 1022.0,    0.2, -999.0
04-09-2023, 00:16:47,    224,    0.0,   13.2,   0.00,   0.00, 1022.1,    0.3, -999.0
04-09-2023, 00:16:57,    224,    0.0,   13.1,   0.00,   0.00, 1022.0,    0.3, -999.0
04-09-2023, 00:17:07,    223,    0.0,   13.2,   0.00,   0.00, 1022.0,    0.2, -999.0
04-09-2023, 00:17:17,    223,    0.0,   13.2,   0.00,   0.00, 1022.0,    0.2, -999.0
04-09-2023, 00:17:27,    223,    0.0,   13.1,   0.00,   0.00, 1022.0,    0.3, -999.0
04-09-2023, 00:17:37,    223,    0.0,   13.1,   0.00,   0.00, 1022.0,    0.2, -999.0
04-09-2023, 00:17:47,    223,    0.0,   13.0,   0.00,   0.00, 1022.0,    0.3, -999.0
04-09-2023, 00:17:56,    223,    0.0,   13.1,   0.00,   0.00, 1022.0,    0.2, -999.0
04-09-2023, 00:18:07,    223,    0.0,   13.1,   0.00,   0.00, 1022.0,    0.3, -999.0
04-09-2023, 00:18:17,    223,    0.0,   13.1,   0.00,   0.00, 1022.0,    0.3, -999.0
04-09-2023, 00:18:26,    223,    0.0,   13.1,   0.00,   0.00, 1022.0,    0.3, -999.0
04-09-2023, 00:18:36,    223,    0.0,   13.1,   0.00,   0.00, 1022.0,    0.3, -999.0
04-09-2023, 00:18:47,    224,    0.0,   13.1,   0.00,   0.00, 1022.0,    0.4, -999.0
04-09-2023, 00:18:56,    223,    0.0,   13.1,   0.00,   0.00, 1022.0,    0.1, -999.0
04-09-2023, 00:19:06,    224,    0.0,   13.2,   0.00,   0.00, 1022.0,    0.3, -999.0
04-09-2023, 00:19:16,    223,    0.0,   13.2,   0.00,   0.00, 1022.0,    0.1, -999.0
04-09-2023, 00:19:27,    223,    0.0,   13.1,   0.00,   0.00, 1022.0,    0.3, -999.0
04-09-2023, 00:19:36,    223,    0.0,   13.1,   0.00,   0.00, 1022.0,    0.4, -999.0
04-09-2023, 00:19:46,    223,    0.0,   13.2,   0.00,   0.00, 1022.0,    0.3, -999.0
04-09-2023, 00:19:56,    223,    0.0,   13.1,   0.00,   0.00, 1022.0,    0.2, -999.0
04-09-2023, 00:20:06,    224,    0.0,   13.1,   0.00,   0.00, 1022.0,    0.2, -999.0
04-09-2023, 00:20:16,    223,    0.0,   13.1,   0.00,   0.00, 1022.0,    0.3, -999.0
04-09-2023, 00:20:26,    224,    0.0,   13.2,   0.00,   0.00, 1022.0,    0.4, -999.0
04-09-2023, 00:20:36,    224,    0.0,   13.1,   0.00,   0.00, 1022.0,    0.2, -999.0
04-09-2023, 00:20:46,    223,    0.0,   13.1,   0.00,   0.00, 1022.0,    0.3, -999.0
04-09-2023, 00:20:56,    223,    0.0,   13.1,   0.00,   0.00, 1022.0,    0.2, -999.0
04-09-2023, 00:21:06,    223,    0.0,   13.1,   0.00,   0.00, 1022.0,    0.2, -999.0
04-09-2023, 00:21:16,    223,    0.0,   13.1,   0.00,   0.00, 1022.0,    0.2, -999.0
04-09-2023, 00:21:26,    223,    0.0,   13.1,   0.00,   0.00, 1022.0,    0.3, -999.0
04-09-2023, 00:21:36,    224,    0.0,   13.1,   0.00,   0.00, 1021.9,    0.3, -999.0
04-09-2023, 00:21:46,    222,    0.0,   13.2,   0.00,   0.00, 1022.0,    0.2, -999.0
04-09-2023, 00:21:56,    224,    0.0,   13.1,   0.00,   0.00, 1022.0,    0.2, -999.0
04-09-2023, 00:22:06,    224,    0.0,   13.0,   0.00,   0.00, 1022.0,    0.2, -999.0
04-09-2023, 00:22:16,    223,    0.0,   13.0,   0.00,   0.00, 1022.0,    0.1, -999.0
04-09-2023, 00:22:26,    223,    0.0,   13.1,   0.00,   0.00, 1022.0,    0.2, -999.0
04-09-2023, 00:22:36,    223,    0.0,   13.1,   0.00,   0.00, 1022.0,    0.3, -999.0
04-09-2023, 00:22:46,    224,    0.0,   13.1,   0.00,   0.00, 1022.0,    0.3, -999.0
04-09-2023, 00:22:56,    223,    0.0,   13.1,   0.00,   0.00, 1022.0,    0.3, -999.0
04-09-2023, 00:23:06,    223,    0.0,   13.2,   0.00,   0.00, 1022.0,    0.2, -999.0
04-09-2023, 00:23:16,    224,    0.0,   13.1,   0.00,   0.00, 1022.0,    0.1, -999.0
04-09-2023, 00:23:26,    223,    0.0,   13.1,   0.00,   0.00, 1022.0,    0.3, -999.0
04-09-2023, 00:23:36,    224,    0.0,   13.1,   0.00,   0.00, 1021.9,    0.1, -999.0
04-09-2023, 00:23:46,    223,    0.0,   13.1,   0.00,   0.00, 1022.0,    0.3, -999.0
04-09-2023, 00:23:55,    224,    0.0,   13.1,   0.00,   0.00, 1022.0,    0.3, -999.0
04-09-2023, 00:24:06,    224,    0.0,   13.1,   0.00,   0.00, 1022.0,    0.3, -999.0
04-09-2023, 00:24:16,    224,    0.0,   13.0,   0.00,   0.00, 1022.0,    0.3, -999.0
04-09-2023, 00:24:26,    223,    0.0,   13.1,   0.00,   0.00, 1022.0,    0.3, -999.0
04-09-2023, 00:24:35,    223,    0.0,   13.1,   0.00,   0.00, 1022.0,    0.2, -999.0
04-09-2023, 00:24:45,    224,    0.0,   13.1,   0.00,   0.00, 1022.0,    0.3, -999.0
04-09-2023, 00:24:56,    223,    0.0,   13.1,   0.00,   0.00, 1022.0,    0.3, -999.0
04-09-2023, 00:25:05,    224,    0.0,   13.1,   0.00,   0.00, 1022.0,    0.2, -999.0
04-09-2023, 00:25:15,    224,    0.0,   13.1,   0.00,   0.00, 1021.9,    0.2, -999.0
04-09-2023, 00:25:26,    224,    0.0,   13.1,   0.00,   0.00, 1021.9,    0.2, -999.0
04-09-2023, 00:25:35,    224,    0.0,   13.1,   0.00,   0.00, 1022.0,    0.3, -999.0
04-09-2023, 00:25:45,    224,    0.0,   13.1,   0.00,   0.00, 1022.0,    0.3, -999.0
04-09-2023, 00:25:55,    223,    0.0,   13.1,   0.00,   0.00, 1021.9,    0.2, -999.0
04-09-2023, 00:26:06,    224,    0.0,   13.1,   0.00,   0.00, 1021.9,    0.3, -999.0
04-09-2023, 00:26:15,    226,    0.0,   13.0,   0.00,   0.00, 1021.9,    0.3, -999.0
04-09-2023, 00:26:25,    224,    0.0,   13.1,   0.00,   0.00, 1021.9,    0.3, -999.0
04-09-2023, 00:26:35,    224,    0.0,   13.0,   0.00,   0.00, 1021.9,    0.3, -999.0
04-09-2023, 00:26:45,    224,    0.0,   13.1,   0.00,   0.00, 1021.9,    0.3, -999.0
04-09-2023, 00:26:55,    224,    0.0,   13.1,   0.00,   0.00, 1021.9,    0.2, -999.0
04-09-2023, 00:27:05,    224,    0.0,   13.0,   0.00,   0.00, 1021.9,    0.1, -999.0
04-09-2023, 00:27:15,    224,    0.0,   13.0,   0.00,   0.00, 1021.9,    0.2, -999.0
04-09-2023, 00:27:25,    224,    0.0,   13.0,   0.00,   0.00, 1021.9,    0.2, -999.0
04-09-2023, 00:27:35,    224,    0.0,   13.1,   0.00,   0.00, 1021.9,    0.2, -999.0
04-09-2023, 00:27:45,    224,    0.0,   13.1,   0.00,   0.00, 1021.9,    0.6, -999.0
04-09-2023, 00:27:55,    224,    0.0,   13.1,   0.00,   0.00, 1021.9,    0.4, -999.0
04-09-2023, 00:28:05,    224,    0.0,   13.1,   0.00,   0.00, 1021.9,    0.3, -999.0
04-09-2023, 00:28:15,    223,    0.0,   13.1,   0.00,   0.00, 1021.9,    0.0, -999.0
04-09-2023, 00:28:25,    224,    0.0,   13.0,   0.00,   0.00, 1021.9,    0.1, -999.0
04-09-2023, 00:28:35,    224,    0.0,   13.0,   0.00,   0.00, 1021.9,    0.5, -999.0
04-09-2023, 00:28:45,    223,    0.0,   13.0,   0.00,   0.00, 1021.9,    0.2, -999.0
04-09-2023, 00:28:55,    226,    0.0,   13.0,   0.00,   0.00, 1021.9,    0.2, -999.0
04-09-2023, 00:29:05,    226,    0.0,   13.1,   0.00,   0.00, 1021.9,    0.4, -999.0
04-09-2023, 00:29:15,    226,    0.0,   13.0,   0.00,   0.00, 1021.9,    0.3, -999.0
04-09-2023, 00:29:25,    226,    0.0,   13.0,   0.00,   0.00, 1021.9,    0.3, -999.0
04-09-2023, 00:29:35,    226,    0.0,   13.1,   0.00,   0.00, 1021.9,    0.3, -999.0
04-09-2023, 00:29:45,    226,    0.0,   13.1,   0.00,   0.00, 1021.9,    0.1, -999.0
04-09-2023, 00:29:55,    226,    0.0,   13.1,   0.00,   0.00, 1021.9,    0.2, -999.0
04-09-2023, 00:30:05,    226,    0.0,   13.0,   0.00,   0.00, 1021.9,    0.4, -999.0
04-09-2023, 00:30:15,    226,    0.0,   13.0,   0.00,   0.00, 1021.9,    0.2, -999.0
04-09-2023, 00:30:25,    231,    0.0,   13.0,   0.00,   0.00, 1021.9,    0.2, -999.0
04-09-2023, 00:30:34,    231,    0.0,   13.0,   0.00,   0.00, 1021.9,    0.2, -999.0
04-09-2023, 00:30:44,    229,    0.0,   13.1,   0.00,   0.00, 1021.9,    0.2, -999.0
04-09-2023, 00:30:55,    230,    0.0,   13.1,   0.00,   0.00, 1021.9,    0.4, -999.0
04-09-2023, 00:31:04,    230,    0.0,   13.1,   0.00,   0.00, 1021.9,    0.4, -999.0
04-09-2023, 00:31:14,    231,    0.0,   13.0,   0.00,   0.00, 1021.9,    0.3, -999.0
04-09-2023, 00:31:25,    231,    0.0,   13.1,   0.00,   0.00, 1021.9,    0.4, -999.0
04-09-2023, 00:31:34,    230,    0.0,   13.0,   0.00,   0.00, 1021.9,    0.3, -999.0
04-09-2023, 00:31:44,    230,    0.0,   13.1,   0.00,   0.00, 1021.9,    0.3, -999.0
04-09-2023, 00:31:54,    231,    0.0,   13.2,   0.00,   0.00, 1021.9,    0.2, -999.0
04-09-2023, 00:32:05,    230,    0.0,   13.2,   0.00,   0.00, 1021.9,    0.2, -999.0
04-09-2023, 00:32:14,    231,    0.0,   13.2,   0.00,   0.00, 1021.9,    0.3, -999.0
04-09-2023, 00:32:24,    231,    0.0,   13.3,   0.00,   0.00, 1021.9,    0.2, -999.0
04-09-2023, 00:32:34,    231,    0.0,   13.3,   0.00,   0.00, 1021.9,    0.3, -999.0
04-09-2023, 00:32:44,    231,    0.0,   13.3,   0.00,   0.00, 1021.9,    0.4, -999.0
04-09-2023, 00:32:54,    230,    0.0,   13.3,   0.00,   0.00, 1021.9,    0.3, -999.0
04-09-2023, 00:33:04,    231,    0.0,   13.3,   0.00,   0.00, 1022.0,    0.2, -999.0
04-09-2023, 00:33:14,    231,    0.0,   13.3,   0.00,   0.00, 1021.9,    0.1, -999.0
04-09-2023, 00:33:24,    231,    0.0,   13.3,   0.00,   0.00, 1022.0,    0.2, -999.0
04-09-2023, 00:33:34,    230,    0.0,   13.2,   0.00,   0.00, 1022.0,    0.2, -999.0
04-09-2023, 00:33:44,    230,    0.0,   13.4,   0.00,   0.00, 1021.9,    0.3, -999.0
04-09-2023, 00:33:54,    230,    0.0,   13.4,   0.00,   0.00, 1021.9,    0.3, -999.0
04-09-2023, 00:34:04,    231,    0.0,   13.4,   0.00,   0.00, 1021.9,    0.3, -999.0
04-09-2023, 00:34:14,    231,    0.0,   13.4,   0.00,   0.00, 1021.9,    0.2, -999.0
04-09-2023, 00:34:24,    231,    0.0,   13.4,   0.00,   0.00, 1021.9,    0.2, -999.0
04-09-2023, 00:34:34,    230,    0.0,   13.3,   0.00,   0.00, 1021.9,    0.2, -999.0
04-09-2023, 00:34:44,    231,    0.0,   13.4,   0.00,   0.00, 1022.0,    0.2, -999.0
04-09-2023, 00:34:54,    231,    0.0,   13.4,   0.00,   0.00, 1022.0,    0.3, -999.0
04-09-2023, 00:35:04,    231,    0.0,   13.4,   0.00,   0.00, 1022.0,    0.2, -999.0
04-09-2023, 00:35:14,    231,    0.0,   13.3,   0.00,   0.00, 1021.9,    0.2, -999.0
04-09-2023, 00:35:24,    231,    0.0,   13.4,   0.00,   0.00, 1022.0,    0.2, -999.0
04-09-2023, 00:35:34,    231,    0.0,   13.4,   0.00,   0.00, 1021.9,    0.2, -999.0
04-09-2023, 00:35:44,    231,    0.0,   13.4,   0.00,   0.00, 1022.0,    0.4, -999.0
04-09-2023, 00:35:54,    231,    0.0,   13.4,   0.00,   0.00, 1022.0,    0.2, -999.0
04-09-2023, 00:36:04,    230,    0.0,   13.4,   0.00,   0.00, 1021.9,    0.4, -999.0
04-09-2023, 00:36:14,    230,    0.0,   13.4,   0.00,   0.00, 1022.0,    0.3, -999.0
04-09-2023, 00:36:24,    231,    0.0,   13.4,   0.00,   0.00, 1021.9,    0.4, -999.0
04-09-2023, 00:36:33,    231,    0.0,   13.3,   0.00,   0.00, 1021.9,    0.3, -999.0
04-09-2023, 00:36:44,    230,    0.0,   13.4,   0.00,   0.00, 1021.9,    0.3, -999.0
04-09-2023, 00:36:54,    230,    0.0,   13.3,   0.00,   0.00, 1022.0,    0.3, -999.0
04-09-2023, 00:37:03,    230,    0.0,   13.3,   0.00,   0.00, 1021.9,    0.2, -999.0
04-09-2023, 00:37:13,    230,    0.0,   13.4,   0.00,   0.00, 1021.9,    0.2, -999.0
04-09-2023, 00:37:24,    231,    0.0,   13.3,   0.00,   0.00, 1022.0,    0.2, -999.0
04-09-2023, 00:37:34,    234,    0.0,   13.4,   0.00,   0.00, 1021.9,    0.2, -999.0
04-09-2023, 00:37:43,    231,    0.0,   13.4,   0.00,   0.00, 1021.9,    0.3, -999.0
04-09-2023, 00:37:53,    231,    0.0,   13.4,   0.00,   0.00, 1021.9,    0.3, -999.0
04-09-2023, 00:38:04,    230,    0.0,   13.3,   0.00,   0.00, 1021.9,    0.2, -999.0
04-09-2023, 00:38:13,    230,    0.0,   13.3,   0.00,   0.00, 1021.9,    0.3, -999.0
04-09-2023, 00:38:23,    231,    0.0,   13.3,   0.00,   0.00, 1021.9,    0.3, -999.0
04-09-2023, 00:38:33,    230,    0.0,   13.3,   0.00,   0.00, 1021.9,    0.5, -999.0
04-09-2023, 00:38:43,    231,    0.0,   13.3,   0.00,   0.00, 1021.9,    0.2, -999.0
04-09-2023, 00:38:53,    231,    0.0,   13.3,   0.00,   0.00, 1021.9,    0.3, -999.0
04-09-2023, 00:39:03,    231,    0.0,   13.3,   0.00,   0.00, 1021.9,    0.5, -999.0
04-09-2023, 00:39:13,    231,    0.0,   13.3,   0.00,   0.00, 1021.9,    0.2, -999.0
04-09-2023, 00:39:23,    231,    0.0,   13.2,   0.00,   0.00, 1021.9,    0.2, -999.0
04-09-2023, 00:39:33,    231,    0.0,   13.3,   0.00,   0.00, 1021.9,    0.3, -999.0
04-09-2023, 00:39:43,    231,    0.0,   13.3,   0.00,   0.00, 1021.9,    0.4, -999.0
04-09-2023, 00:39:53,    231,    0.0,   13.3,   0.00,   0.00, 1021.9,    0.4, -999.0
04-09-2023, 00:40:03,    230,    0.0,   13.3,   0.00,   0.00, 1021.9,    0.1, -999.0
04-09-2023, 00:40:13,    230,    0.0,   13.3,   0.00,   0.00, 1021.9,    0.2, -999.0
04-09-2023, 00:40:23,    231,    0.0,   13.3,   0.00,   0.00, 1021.9,    0.2, -999.0
04-09-2023, 00:40:33,    231,    0.0,   13.3,   0.00,   0.00, 1021.9,    0.3, -999.0
04-09-2023, 00:40:43,    231,    0.0,   13.2,   0.00,   0.00, 1021.9,    0.2, -999.0
04-09-2023, 00:40:53,    231,    0.0,   13.2,   0.00,   0.00, 1021.9,    0.3, -999.0
04-09-2023, 00:41:03,    231,    0.0,   13.2,   0.00,   0.00, 1021.9,    0.2, -999.0
04-09-2023, 00:41:13,    231,    0.0,   13.3,   0.00,   0.00, 1021.9,    0.2, -999.0
04-09-2023, 00:41:23,    230,    0.0,   13.3,   0.00,   0.00, 1021.9,    0.2, -999.0
04-09-2023, 00:41:33,    231,    0.0,   13.3,   0.00,   0.00, 1021.9,    0.4, -999.0
04-09-2023, 00:41:43,    231,    0.0,   13.2,   0.00,   0.00, 1021.9,    0.2, -999.0
04-09-2023, 00:41:52,    231,    0.0,   13.2,   0.00,   0.00, 1021.9,    0.3, -999.0
04-09-2023, 00:42:03,    231,    0.0,   13.2,   0.00,   0.00, 1021.9,    0.2, -999.0
04-09-2023, 00:42:13,    231,    0.0,   13.2,   0.00,   0.00, 1021.9,    0.3, -999.0
04-09-2023, 00:42:23,    231,    0.0,   13.1,   0.00,   0.00, 1021.9,    0.3, -999.0
04-09-2023, 00:42:33,    231,    0.0,   13.2,   0.00,   0.00, 1021.9,    0.2, -999.0
04-09-2023, 00:42:43,    231,    0.0,   13.2,   0.00,   0.00, 1021.9,    0.3, -999.0
04-09-2023, 00:42:53,    231,    0.0,   13.2,   0.00,   0.00, 1021.9,    0.3, -999.0
04-09-2023, 00:43:02,    231,    0.0,   13.2,   0.00,   0.00, 1021.9,    0.3, -999.0
04-09-2023, 00:43:13,    231,    0.0,   13.2,   0.00,   0.00, 1021.9,    0.3, -999.0
04-09-2023, 00:43:23,    231,    0.0,   13.1,   0.00,   0.00, 1021.9,    0.2, -999.0
04-09-2023, 00:43:32,    231,    0.0,   13.2,   0.00,   0.00, 1021.9,    0.1, -999.0
04-09-2023, 00:43:42,    230,    0.0,   13.2,   0.00,   0.00, 1021.9,    0.3, -999.0
04-09-2023, 00:43:53,    230,    0.0,   13.2,   0.00,   0.00, 1021.9,    0.3, -999.0
04-09-2023, 00:44:02,    231,    0.0,   13.1,   0.00,   0.00, 1021.9,    0.3, -999.0
04-09-2023, 00:44:12,    231,    0.0,   13.1,   0.00,   0.00, 1021.9,    0.2, -999.0
04-09-2023, 00:44:22,    231,    0.0,   13.1,   0.00,   0.00, 1021.9,    0.3, -999.0
04-09-2023, 00:44:32,    231,    0.0,   13.1,   0.00,   0.00, 1021.9,    0.2, -999.0
04-09-2023, 00:44:42,    231,    0.0,   13.1,   0.00,   0.00, 1021.9,    0.3, -999.0
04-09-2023, 00:44:52,    230,    0.0,   13.0,   0.00,   0.00, 1021.9,    0.1, -999.0
04-09-2023, 00:45:02,    230,    0.0,   13.1,   0.00,   0.00, 1021.9,    0.1, -999.0
04-09-2023, 00:45:12,    231,    0.0,   13.1,   0.00,   0.00, 1021.9,    0.3, -999.0
04-09-2023, 00:45:22,    231,    0.0,   13.1,   0.00,   0.00, 1021.9,    0.2, -999.0
04-09-2023, 00:45:32,    231,    0.0,   13.1,   0.00,   0.00, 1021.9,    0.1, -999.0
04-09-2023, 00:45:42,    231,    0.0,   13.1,   0.00,   0.00, 1021.9,    0.3, -999.0
04-09-2023, 00:45:52,    231,    0.0,   13.2,   0.00,   0.00, 1021.9,    0.2, -999.0
04-09-2023, 00:46:02,    231,    0.0,   13.2,   0.00,   0.00, 1021.9,    0.2, -999.0
04-09-2023, 00:46:12,    231,    0.0,   13.1,   0.00,   0.00, 1021.9,    0.3, -999.0
04-09-2023, 00:46:22,    231,    0.0,   13.0,   0.00,   0.00, 1021.9,    0.2, -999.0
04-09-2023, 00:46:32,    231,    0.0,   13.2,   0.00,   0.00, 1021.9,    0.3, -999.0
04-09-2023, 00:46:42,    231,    0.0,   13.1,   0.00,   0.00, 1021.8,    0.3, -999.0